DW4341 Weather Reports


Display with metric or nautical units.
time (UTC)temp
F
wind
direction
speed
MPH
gust
MPH
rain 1hr
in
rain 24hr
in
rain mn
in
humidity
%
barometer
mb
20201204044617 45 235 2.0 4.0 0.00 0.00 0.00 46 1023.6
20201204043207 45 245 1.0 4.0 0.00 0.00 0.00 46 1023.9
20201204041833 45 223 1.0 5.0 0.00 0.00 0.00 46 1023.6
20201204040213 45 212 1.0 6.0 0.00 0.00 0.00 46 1023.9
20201204034721 45 209 2.0 5.0 0.00 0.00 0.00 45 1024.2
20201204033125 46 138 1.0 5.0 0.00 0.00 0.00 45 1023.8
20201204031624 46 145 1.0 4.0 0.00 0.00 0.00 45 1023.6
20201204030211 46 207 3.0 6.0 0.00 0.00 0.00 44 1024.3
20201204024719 46 205 2.0 6.0 0.00 0.00 0.00 44 1023.9
20201204023316 45 191 2.0 5.0 0.00 0.00 0.00 44 1023.8
20201204021700 45 193 2.0 5.0 0.00 0.00 0.00 43 1024.2
20201204020319 45 249 1.0 4.0 0.00 0.00 0.00 43 1023.9
20201204014738 45 162 2.0 5.0 0.00 0.00 0.00 43 1023.9
20201204013210 44 194 1.0 4.0 0.00 0.00 0.00 42 1024.0
20201204011627 44 206 2.0 4.0 0.00 0.00 0.00 42 1024.1
20201204010313 44 219 1.0 3.0 0.00 0.00 0.00 41 1024.1
20201204004634 44 213 1.0 4.0 0.00 0.00 0.00 41 1024.4
20201204003204 44 165 1.0 3.0 0.00 0.00 0.00 40 1024.5
20201204001729 44 130 1.0 3.0 0.00 0.00 0.00 40 1024.6
20201204000226 44 161 1.0 4.0 0.00 0.00 0.00 39 1024.6
20201203234718 42 209 0.0 2.0 0.00 0.00 0.00 39 1024.5
20201203233152 40 148 0.0 1.0 0.00 0.00 0.00 38 1024.3
20201203231632 38 0 0.0 0.0 0.00 0.00 0.00 38 1024.3
20201203230148 38 0 0.0 0.0 0.00 0.00 0.00 38 1024.2
20201203224714 39 0 0.0 0.0 0.00 0.00 0.00 38 1024.0
20201203223128 40 0 0.0 0.0 0.00 0.00 0.00 38 1024.1
20201203221623 42 0 0.0 0.0 0.00 0.00 0.00 38 1024.2
20201203220217 44 0 0.0 0.0 0.00 0.00 0.00 39 1024.2
20201203214625 47 0 0.0 0.0 0.00 0.00 0.00 39 1024.3
20201203213205 50 0 0.0 0.0 0.00 0.00 0.00 39 1024.3
20201203211655 52 0 0.0 3.0 0.00 0.00 0.00 40 1024.3
20201203210145 52 262 2.0 6.0 0.00 0.00 0.00 41 1024.7
20201203204641 52 220 1.0 5.0 0.00 0.00 0.00 41 1024.8
20201203203128 53 243 3.0 5.0 0.00 0.00 0.00 42 1024.9
20201203201650 52 260 2.0 5.0 0.00 0.00 0.00 43 1024.8
20201203200125 52 213 3.0 7.0 0.00 0.00 0.00 43 1024.9
20201203194701 52 253 4.0 8.0 0.00 0.00 0.00 44 1024.7
20201203193111 52 224 2.0 6.0 0.00 0.00 0.00 45 1024.8
20201203191637 52 285 2.0 7.0 0.00 0.00 0.00 46 1024.7
20201203190145 52 241 3.0 7.0 0.00 0.00 0.00 47 1024.8
20201203184731 52 264 2.0 5.0 0.00 0.00 0.00 48 1024.8
20201203183215 52 221 3.0 6.0 0.00 0.00 0.00 49 1025.0
20201203181652 52 254 2.0 6.0 0.00 0.00 0.00 50 1025.1
20201203180118 52 253 2.0 8.0 0.00 0.00 0.00 51 1025.5
20201203174654 51 205 3.0 8.0 0.00 0.00 0.00 52 1025.8
20201203173200 50 165 4.0 8.0 0.00 0.00 0.00 52 1026.0
20201203171637 50 209 3.0 6.0 0.00 0.00 0.00 53 1026.1
20201203170214 49 240 3.0 6.0 0.00 0.00 0.00 54 1026.2
20201203164656 48 255 4.0 7.0 0.00 0.00 0.00 54 1026.1
20201203163111 47 307 3.0 5.0 0.00 0.00 0.00 54 1026.4
20201203161650 46 283 2.0 6.0 0.00 0.00 0.00 55 1026.5
20201203160144 45 255 2.0 4.0 0.00 0.00 0.00 55 1026.7
20201203154630 44 245 3.0 5.0 0.00 0.00 0.00 55 1027.0
20201203153158 43 258 2.0 3.0 0.00 0.00 0.00 55 1027.0
20201203151654 43 0 1.0 2.0 0.00 0.00 0.00 54 1027.1
20201203150214 42 269 2.0 5.0 0.00 0.00 0.00 54 1027.2
20201203144638 41 256 2.0 4.0 0.00 0.00 0.00 54 1027.0
20201203143141 40 283 1.0 3.0 0.00 0.00 0.00 53 1027.1
20201203141735 39 257 1.0 3.0 0.00 0.00 0.00 53 1027.2
20201203140156 38 274 1.0 3.0 0.00 0.00 0.00 53 1027.3
20201203134609 38 271 1.0 1.0 0.00 0.00 0.00 52 1027.2
20201203133250 35 274 0.0 1.0 0.00 0.00 0.00 52 1027.3
20201203131628 31 0 0.0 0.0 0.00 0.00 0.00 52 1027.1
20201203130131 28 0 0.0 1.0 0.00 0.00 0.00 51 1026.8
20201203124626 27 0 0.0 0.0 0.00 0.00 0.00 51 1026.6
20201203123128 27 0 0.0 1.0 0.00 0.00 0.00 51 1026.8
20201203121620 26 0 0.0 1.0 0.00 0.00 0.00 51 1026.7
20201203120214 26 0 0.0 1.0 0.00 0.00 0.00 51 1026.6
20201203114658 27 0 0.0 0.0 0.00 0.00 0.00 51 1026.5
20201203113127 28 0 0.0 0.0 0.00 0.00 0.00 51 1026.3
20201203111731 28 0 0.0 0.0 0.00 0.00 0.00 51 1026.1
20201203110352 29 0 0.0 1.0 0.00 0.00 0.00 51 1026.0
20201203104634 31 274 0.0 1.0 0.00 0.00 0.00 51 1025.9
20201203103213 32 0 0.0 1.0 0.00 0.00 0.00 51 1026.2
20201203101727 33 243 0.0 3.0 0.00 0.00 0.00 50 1026.1
20201203100208 34 265 1.0 3.0 0.00 0.00 0.00 50 1026.1
20201203094727 34 282 2.0 4.0 0.00 0.00 0.00 50 1026.0
20201203093131 34 300 2.0 3.0 0.00 0.00 0.00 50 1026.0
20201203091849 34 295 1.0 4.0 0.00 0.00 0.00 50 1026.1
20201203090227 33 275 1.0 2.0 0.00 0.00 0.00 50 1025.8
20201203084611 32 250 0.0 1.0 0.00 0.00 0.00 50 1025.8
20201203083258 31 0 0.0 1.0 0.00 0.00 0.00 50 1025.7
20201203081713 31 229 0.0 1.0 0.00 0.00 0.00 49 1025.6
20201203080225 32 245 0.0 3.0 0.00 0.00 0.00 49 1025.4
20201203074738 31 0 0.0 1.0 0.00 0.00 0.00 49 1025.5
20201203073205 33 0 0.0 0.0 0.00 0.00 0.00 49 1025.3
20201203071650 35 250 1.0 2.0 0.00 0.00 0.00 49 1025.3
20201203070155 34 242 1.0 3.0 0.00 0.00 0.00 49 1025.3
20201203064632 35 281 1.0 3.0 0.00 0.00 0.00 49 1025.1
20201203063141 34 236 1.0 2.0 0.00 0.00 0.00 49 1024.9
20201203061652 34 238 0.0 1.0 0.00 0.00 0.00 49 1025.0
20201203060208 35 242 0.0 3.0 0.00 0.00 0.00 49 1025.0
20201203054630 34 240 1.0 2.0 0.00 0.00 0.00 49 1024.9
20201203053127 33 254 0.0 1.0 0.00 0.00 0.00 49 1024.9
20201203051800 35 260 0.0 0.0 0.00 0.00 0.00 49 1024.8
20201203050229 36 205 1.0 4.0 0.00 0.00 0.00 49 1024.9